[[{"header":{"parameterUnit":"m.s-1","parameterCategory":1,"la1":30.2991,"la2":30.254,"lo1":-89.0895,"lo2":-89.0444,"dy":0.0017,"dx":0.0017,"nx":28,"ny":28,"refTime":"2025-07-17T21:00:00:Z","depth":0,"parameterNumber":2,"parameterNumberName":"U-component_of_WINDS"},"data":[0,0,0,0,0,0,0,0,0,0,0,0,0,0,0,0,0,0,0,0,0,0,0,0,0,0,0,0,0,0,0,0,0,0,0,0,0,0,0,0,0,0,0,0,0,0,0,0,0,0,0,0,0,0,0,0,0,0,2.3899,2.3901,0,2.4069,2.407,2.4072,2.415,2.415,2.4149,2.4149,2.4327,2.4332,2.4336,0,0,0,0,0,0,0,0,0,0,0,0,0,2.3644,2.3649,2.3899,2.3901,2.3903,2.4068,2.4071,2.4073,2.415,2.415,2.4149,2.4149,2.4325,2.4331,2.4337,0,0,0,0,0,0,0,0,0,0,0,0,0,2.3779,2.365,2.3899,2.3961,2.3969,2.4068,2.4071,2.4074,2.415,2.415,2.4149,2.4149,2.4323,2.433,2.4338,2.4388,0,0,2.436,2.4363,0,0,0,0,0,0,0,0,2.3771,2.3788,2.395,2.3957,2.3966,2.4088,2.4046,2.4179,2.415,2.4081,2.4149,2.4149,2.4248,2.4261,2.4294,2.4397,2.4404,2.4361,2.4365,2.4368,2.437,0,0,0,0,0,0,0,2.3761,2.3781,2.3966,2.3952,2.3962,2.3982,2.4001,2.4072,2.4164,2.4087,2.4093,2.4112,2.4252,2.4286,2.4298,2.4407,2.436,2.4367,2.4372,2.4374,2.4559,2.4559,0,0,0,0,0,0,2.3741,2.3773,2.3961,2.3971,2.3865,2.3987,2.4008,2.4049,2.4163,2.4181,2.4112,2.4115,2.4274,2.429,2.4305,2.4372,2.4368,2.4375,2.4379,2.4558,2.4559,2.4559,0,0,0,0,0,0,2.3736,2.3758,2.3954,2.3874,2.39,2.3991,2.4037,2.4052,2.4087,2.4182,2.4199,2.413,2.4274,2.4295,2.4367,2.4379,2.4378,2.4385,2.4558,2.4559,2.4559,2.4505,0,0,0,0,0,0,2.3728,2.3755,2.3775,2.3873,2.3904,2.4012,2.4038,2.4056,2.4099,2.4104,2.4204,2.422,2.4276,2.4355,2.4374,2.4389,2.4391,2.4557,2.4558,2.4559,2.4506,2.4504,2.4502,0,0,0,0,0,2.3719,2.3754,2.3775,2.3798,2.393,2.4012,2.403,2.4092,2.41,2.412,2.4181,2.4217,2.4374,2.4362,2.4384,2.4401,2.4557,2.4558,2.4559,2.4507,2.4504,2.4502,0,0,0,0,0,0,2.3656,2.3768,2.3793,2.3861,2.3926,2.4025,2.4053,2.4087,2.4153,2.4156,2.4232,2.4253,2.4318,2.4367,2.4351,2.4456,2.4469,2.4474,2.4422,2.442,2.4417,2.4405,2.4397,0,0,0,0,0,2.3649,2.3705,2.3801,2.3851,2.3882,2.3962,2.4,2.4042,2.4113,2.4142,2.4208,2.4277,2.4342,2.4384,2.4449,2.4513,2.4536,2.4535,2.4533,2.4531,2.4535,2.4572,2.4573,2.4563,2.4563,2.4563,0,0,2.3638,2.3706,2.3737,2.384,2.3896,2.3953,2.3985,2.4044,2.4087,2.4152,2.4223,2.4274,2.4356,2.4423,2.4457,2.4466,2.4543,2.4532,2.453,2.4536,2.4574,2.4575,2.4575,2.4564,2.4564,2.4564,0,0,2.3645,2.3702,2.375,2.3804,2.3887,2.394,2.3951,2.4045,2.408,2.4153,2.4202,2.4255,2.4365,2.4421,2.4464,2.449,2.4525,2.4509,2.4499,2.4534,2.4535,2.4536,2.4545,2.4548,2.4513,2.4513,2.4513,0,2.362,2.3707,2.3771,2.3827,2.3871,2.3929,2.3979,2.4029,2.4129,2.4159,2.4167,2.4306,2.4365,2.4447,2.4453,2.4486,2.4501,2.4499,2.4529,2.4531,2.4533,2.4543,2.4546,2.451,2.4511,2.4511,2.4511,0,2.3672,2.3732,2.3761,2.3854,2.3902,2.3954,2.4026,2.4067,2.4104,2.4155,2.4228,2.4301,2.4381,2.4404,2.4442,2.4491,2.4494,2.4514,2.4529,2.453,2.4541,2.4545,2.4507,2.4508,2.4508,2.4509,0,0,2.3647,2.3773,2.3783,2.3826,2.3921,2.3968,2.4023,2.41,2.4133,2.42,2.4249,2.4339,2.4359,2.4407,2.4452,2.4483,2.4499,2.45,2.4503,2.4498,2.4557,2.4541,2.4545,2.4522,2.4523,2.4524,2.4551,0,2.3668,2.3767,2.3825,2.3902,2.3957,2.4013,2.4061,2.4124,2.4173,2.4229,2.4284,2.4347,2.4367,2.4397,2.443,2.449,2.4512,2.4489,2.4569,2.4571,2.4547,2.455,2.4534,2.4556,2.4555,2.4556,2.4556,0,2.3706,2.377,2.3851,2.3938,2.3964,2.4006,2.4081,2.4132,2.4205,2.4239,2.4292,2.4336,2.4397,2.4405,2.449,2.4473,2.4509,2.4543,2.4545,2.4556,2.4564,2.4562,2.4565,2.4568,2.4564,2.4563,2.4563,0,2.3679,2.3785,2.3848,2.3882,2.3986,2.4014,2.4059,2.4132,2.4174,2.424,2.4268,2.434,2.438,2.4435,2.4497,2.4498,2.4576,2.459,2.4606,2.4604,2.4621,2.462,2.463,2.4643,2.4643,2.4643,2.4643,0,2.3697,2.3744,2.3837,2.3875,2.393,2.3996,2.4049,2.4098,2.4162,2.4212,2.4264,2.431,2.4389,2.4445,2.4494,2.4557,2.4574,2.4604,2.4616,2.46,2.4596,2.4625,2.4625,2.4644,2.4643,2.4643,2.4643,0,2.3677,2.374,2.3812,2.3903,2.3927,2.3964,2.4043,2.4082,2.4133,2.4195,2.4213,2.4294,2.4362,2.4429,2.4521,2.4554,2.4616,2.4633,2.4591,2.4598,2.4611,2.4608,2.4641,2.4649,2.4655,2.4655,2.4655,0,2.3684,2.3722,2.3816,2.3852,2.3895,2.3953,2.3996,2.4062,2.4105,2.419,2.4219,2.4291,2.4351,2.4457,2.4525,2.4595,2.4614,2.4621,2.4625,2.4607,2.4615,2.4612,2.4616,2.4619,2.4618,2.4618,2.4618,0,2.369,2.372,2.3778,2.3848,2.3897,2.3955,2.4016,2.4043,2.4121,2.4166,2.4235,2.4282,2.4374,2.4444,2.4522,2.457,2.4607,2.4615,2.4623,2.4607,2.4581,2.4595,2.4585,2.4615,2.4615,2.4615,2.4616,2.4616,2.3685,2.3721,2.3792,2.3856,2.3908,2.3963,2.4004,2.4059,2.4118,2.4197,2.4233,2.4302,2.4374,2.4482,2.4528,2.4584,2.4594,2.4605,2.4608,2.461,2.4606,2.4571,2.4599,2.4599,2.4599,2.4599,2.4599,0,2.3694,2.3743,2.38,2.3882,2.3932,2.3961,2.4029,2.4069,2.4129,2.4192,2.425,2.4329,2.4397,2.4469,2.4541,2.4572,2.4591,2.4589,2.4588,2.4598,2.4593,2.458,2.4572,2.4572,2.4572,2.4572,2.4572,2.4572,2.3705,2.3767,2.3804,2.3892,2.3941,2.4008,2.4044,2.4095,2.4146,2.4231,2.4287,2.4333,2.44,2.4477,2.4541,2.4561,2.4585,2.4578,2.4602,2.4597,2.4599,2.46,2.4588,2.4583,2.4583,2.4603,2.4603,2.4603]},{"header":{"parameterUnit":"m.s-1","parameterCategory":1,"la1":30.2991,"la2":30.254,"lo1":-89.0895,"lo2":-89.0444,"dy":0.0017,"dx":0.0017,"nx":28,"ny":28,"refTime":"2025-07-17T21:00:00:Z","depth":0,"parameterNumber":3,"parameterNumberName":"V-component_of_WINDS"},"data":[0,0,0,0,0,0,0,0,0,0,0,0,0,0,0,0,0,0,0,0,0,0,0,0,0,0,0,0,0,0,0,0,0,0,0,0,0,0,0,0,0,0,0,0,0,0,0,0,0,0,0,0,0,0,0,0,0,0,4.1189,4.1189,0,4.127,4.1271,4.1272,4.1312,4.1312,4.1312,4.1312,4.1391,4.1393,4.1395,0,0,0,0,0,0,0,0,0,0,0,0,0,4.1063,4.1065,4.1188,4.119,4.1191,4.127,4.1271,4.1272,4.1312,4.1312,4.1312,4.1312,4.139,4.1392,4.1395,0,0,0,0,0,0,0,0,0,0,0,0,0,4.1128,4.1066,4.1188,4.122,4.1224,4.127,4.1271,4.1272,4.1312,4.1312,4.1312,4.1312,4.1389,4.1392,4.1395,4.1414,0,0,4.1405,4.1406,0,0,0,0,0,0,0,0,4.1125,4.1133,4.1215,4.1218,4.1222,4.1281,4.1256,4.1319,4.1312,4.1278,4.1312,4.1312,4.1354,4.136,4.1375,4.1417,4.1421,4.1405,4.1407,4.1408,4.1409,0,0,0,0,0,0,0,4.112,4.113,4.1221,4.1216,4.122,4.1229,4.1238,4.1268,4.1315,4.1281,4.1285,4.1294,4.1356,4.1372,4.1377,4.1422,4.1405,4.1408,4.1409,4.1411,4.1484,4.1484,0,0,0,0,0,0,4.1111,4.1126,4.1218,4.1223,4.1173,4.1231,4.1242,4.1262,4.1315,4.1323,4.1294,4.1295,4.1366,4.1373,4.138,4.1405,4.1408,4.1411,4.1413,4.1484,4.1484,4.1484,0,0,0,0,0,0,4.1108,4.1119,4.1215,4.1175,4.1188,4.1233,4.1256,4.1264,4.128,4.1324,4.1332,4.1302,4.1367,4.1375,4.1405,4.1409,4.1412,4.1415,4.1483,4.1484,4.1484,4.1456,0,0,0,0,0,0,4.1104,4.1118,4.1126,4.1175,4.119,4.124,4.1256,4.1265,4.1285,4.1288,4.1334,4.1341,4.1367,4.14,4.1408,4.1413,4.1418,4.1483,4.1484,4.1484,4.1457,4.1456,4.1454,0,0,0,0,0,4.11,4.1114,4.1127,4.1137,4.1202,4.124,4.1249,4.128,4.1286,4.1294,4.1322,4.134,4.1407,4.1403,4.1412,4.1418,4.1483,4.1483,4.1484,4.1458,4.1456,4.1454,0,0,0,0,0,0,4.1063,4.1121,4.1135,4.1166,4.1198,4.1247,4.1259,4.1277,4.1307,4.1308,4.1344,4.1354,4.1381,4.1402,4.1397,4.1439,4.1447,4.1449,4.1424,4.1422,4.1421,4.1415,4.142,0,0,0,0,0,4.1058,4.1086,4.1135,4.1157,4.1173,4.1213,4.1231,4.1252,4.1286,4.1299,4.133,4.1361,4.1389,4.1407,4.1435,4.146,4.147,4.1469,4.1467,4.1466,4.1467,4.1482,4.1482,4.1484,4.1484,4.1484,0,0,4.1049,4.1085,4.11,4.1151,4.1178,4.1205,4.1224,4.1251,4.1271,4.1303,4.1334,4.1357,4.1394,4.1422,4.1435,4.144,4.1468,4.1466,4.1464,4.1467,4.1482,4.1482,4.1482,4.1484,4.1484,4.1484,0,0,4.1046,4.1076,4.1099,4.1126,4.1167,4.1194,4.1199,4.1246,4.1263,4.1295,4.1319,4.1342,4.139,4.1416,4.1435,4.1441,4.1458,4.1449,4.1441,4.1456,4.1456,4.1456,4.1458,4.1459,4.145,4.145,4.145,0,4.1029,4.1072,4.1107,4.1134,4.1155,4.1187,4.1209,4.1233,4.1281,4.1295,4.13,4.1361,4.1388,4.1422,4.1424,4.1438,4.1445,4.1445,4.1453,4.1453,4.1454,4.1457,4.1458,4.1449,4.1449,4.1449,4.145,0,4.1049,4.1079,4.1091,4.1139,4.1162,4.1186,4.1223,4.1242,4.1261,4.1286,4.1318,4.1351,4.1387,4.1397,4.1415,4.1434,4.1436,4.1446,4.1455,4.1452,4.1455,4.1456,4.1447,4.1448,4.1448,4.1448,0,0,4.1026,4.1093,4.1097,4.1119,4.1167,4.119,4.1215,4.1252,4.1267,4.1298,4.132,4.136,4.137,4.1392,4.1413,4.1426,4.1429,4.1435,4.1437,4.1433,4.1452,4.1444,4.1444,4.1441,4.1441,4.1441,4.1449,0,4.103,4.1079,4.1111,4.1146,4.1173,4.1203,4.1225,4.1256,4.128,4.1305,4.1332,4.136,4.1371,4.1385,4.1398,4.1426,4.1434,4.1426,4.146,4.1461,4.1451,4.1446,4.1438,4.1443,4.145,4.1451,4.1451,0,4.1042,4.1075,4.1113,4.1159,4.1171,4.1191,4.1227,4.1251,4.1286,4.1303,4.1328,4.135,4.1376,4.1382,4.1419,4.1413,4.1428,4.1444,4.1445,4.145,4.1456,4.1451,4.1446,4.1447,4.1453,4.1453,4.1453,0,4.1021,4.1075,4.1105,4.1123,4.1177,4.119,4.1212,4.1248,4.1268,4.1299,4.1312,4.1345,4.1363,4.1388,4.1418,4.1419,4.1451,4.1459,4.1465,4.1464,4.147,4.147,4.1468,4.148,4.148,4.148,4.148,0,4.1023,4.1045,4.1097,4.1115,4.1141,4.1176,4.12,4.1225,4.1257,4.1279,4.1307,4.1327,4.1366,4.139,4.1414,4.144,4.1448,4.1461,4.1467,4.1459,4.1458,4.147,4.1471,4.148,4.148,4.148,4.148,0,4.1005,4.104,4.1075,4.1124,4.1136,4.1153,4.1194,4.1212,4.1238,4.1267,4.1275,4.1315,4.1346,4.1378,4.1419,4.1435,4.1461,4.1469,4.1449,4.1453,4.1456,4.1456,4.1463,4.1466,4.1475,4.1475,4.1475,0,4.1004,4.1022,4.1073,4.1091,4.1114,4.1142,4.1164,4.1199,4.122,4.1262,4.1275,4.1308,4.1336,4.1383,4.1415,4.1447,4.1456,4.1456,4.1461,4.1452,4.1457,4.1455,4.1457,4.1455,4.1455,4.1454,4.1454,0,4.0999,4.1016,4.1046,4.1082,4.1107,4.1137,4.1168,4.1181,4.1222,4.1243,4.1276,4.1298,4.1341,4.1373,4.1409,4.143,4.1449,4.1453,4.1456,4.1448,4.1436,4.1443,4.1446,4.1452,4.1453,4.1453,4.1453,4.1453,4.099,4.1007,4.1046,4.1079,4.1106,4.1134,4.1154,4.1183,4.1212,4.1251,4.1269,4.1302,4.1336,4.1386,4.1408,4.1433,4.1438,4.1442,4.1443,4.1444,4.1442,4.1432,4.1439,4.1439,4.1439,4.1439,4.1439,0,4.0986,4.1013,4.1043,4.1086,4.1111,4.1128,4.1163,4.1183,4.1212,4.1243,4.1271,4.1309,4.134,4.1375,4.1408,4.1421,4.143,4.1429,4.1428,4.1433,4.1435,4.143,4.1421,4.1421,4.1421,4.1421,4.1421,4.1421,4.0987,4.1019,4.104,4.1084,4.111,4.1144,4.1162,4.1188,4.1214,4.1255,4.1282,4.1305,4.1337,4.1373,4.1402,4.1412,4.1422,4.1418,4.143,4.1431,4.1433,4.1434,4.1429,4.142,4.142,4.1426,4.1426,4.1426]}]]